524  
NZUS59 KLOT 260508  
HRRLOT  
 
CHICAGO AREA WEATHER ROUNDUP  
NATIONAL WEATHER SERVICE CHICAGO/ROMEOVILLE IL  
1200 AM CDT TUE OCT 26 2021  
 
NOTE: "FAIR" INDICATES FEW OR NO CLOUDS BELOW 12,000 FEET WITH NO  
SIGNIFICANT WEATHER AND/OR OBSTRUCTIONS TO VISIBILITY.  
 
* THESE STATIONS ARE NOT UNDER NWS QUALITY CONTROL. THEY ALSO MAY NOT  
REPORT WEATHER SUCH AS PRECIPITATION OR FOG.  
 
ILZ005-006-012>014-019>023-260600-  
NORTHEAST ILLINOIS  
 
CITY SKY/WX TMP DP RH WIND PRES REMARKS  
OHARE MOCLDY 47 41 80 NW9 30.05R  
MIDWAY CLOUDY 52 40 63 NE13 30.04R  
AURORA MOCLDY 43 39 86 NW9 30.07S  
LANSING* CLOUDY 52 43 72 NE7 30.04R  
JOLIET* MOCLDY 47 42 81 NW3 30.07R  
WAUKEGAN CLOUDY 51 39 63 NE9G20 30.05R  
DUPAGE AIRPORT CLOUDY 45 39 79 NW8 30.06R  
WHEELING CLOUDY 48 41 76 NW7 30.07R  
KANKAKEE* CLOUDY 46 43 87 NW9 30.06R  
MORRIS* CLOUDY 45 42 91 N6 30.06S  
LEWIS AIRPORT* MOCLDY 46 42 88 NW10 30.06R  
NORTHERLY ISL* N/A 52 42 69 N13 N/A  

 
 
WIZ051-052-058>065-066-070>072-260600-  
SOUTHEAST WISCONSIN  
 
CITY SKY/WX TMP DP RH WIND PRES REMARKS  
MILWAUKEE MOCLDY 50 39 66 N12G24 30.08R  
KENOSHA* CLOUDY 48 40 73 NW9 30.07R  
RACINE* MOCLDY 51 38 60 NE15 30.08R  
WAUKESHA CLOUDY 43 34 70 N7 30.10R  

 
 
INZ001>003-010>013-019-020-260600-  
NORTHWEST INDIANA  
 
CITY SKY/WX TMP DP RH WIND PRES REMARKS  
GARY* CLOUDY 53 43 71 NE14G20 30.05R  
MICHIGAN CITY* NOT AVBL  
RENSSELAER* NOT AVBL  
VALPARAISO CLOUDY 48 41 76 NE6 30.03R  

 
 
LMZ740>746-260600-  
SOUTHERN LAKE MICHIGAN  
 
STATION/POSITION TIME SKY/WX TEMP WIND PRES VSBY  
AIR DIR/SP/G  
(UTC) (F) (DEG/KT/KT) (MB) (MI)  
HARRISON CRIB 0440 54 40/ 21/ 24 N/A  
NORTHERLY ISL 0500 52 30/ 14/ 20 N/A  
CALUMET HARBOR 0430 10/ 11/ 17 1015.6R  
BURNS HARBOR 0440 53 50/ 11/ 15 1016.6S  
MICHIGAN CITY 0440 51 40/ 23/ 25 1016.9R  

 
 
ABBREVIATIONS USED IN REMARKS  
TC - TEMPERATURE IN CELSIUS  
WCI - WIND CHILL INDEX  
HX - HEAT INDEX  
VSB - VISIBILITY  

 
 
 
CLICK HERE TO GO TO PREVIOUS BULLETINS.

The Nexlab IL Page
The Nexlab IN Page Main Text Page